Main page
METAR-TAF:

Airports :

Alpine, Texas, United States

Alpine-Casparis Municipal Airport

latitude: 30-23-03N, longitude: 103-41-00W, elevation: 1376 m

Current weather observation

The report was made 35 minutes ago, at 00:35 UTC
Wind 3 kt from the East/Southeast
Temperature 18°C
Humidity 18%
Pressure 1025 hPa
Visibility: 16.1 km
Clear sky

METAR: KE38 120035Z AUTO 12003KT 10SM CLR 18/M07 A3028 RMK AO2 T01831070

Time: 19:10 (01:10 UTC)


TAF: missing

METAR-TAF

Weather observations and forecasts of more than 4000 airports (METAR and TAF reports).

The available stations are represented by yellow and red dots on the map.

Hover mouse over dot to see the name of the station.

Then click to see weather observations and forecasts.

To change the map : click on the green buttons with a black cross to zoom in, on the green button with a dash to zoom out, or on the green arrows for adjacent maps.


METAR-TAF: